Location: Unspecified
(0.0000°N, 0.0000°E)
Time: 09:11:41
(UTC+00:00)

Vanguard 1 Rocket - Visible Passes

Search period start: 03 April 2020 00:00
Search period end: 13 April 2020 00:00
Orbit: 650 x 4227 km, 34.3° (Epoch: 02 April)

Date Brightness Start Highest point End Pass type
(mag) Time Alt. Az. Time Alt. Az. Time Alt. Az.
03 Apr 11.4 18:13:49 10° NW 18:31:32 23° N 18:49:08 10° NE visible
03 Apr 10.6 20:48:12 10° NW 21:11:15 39° NNE 21:11:51 39° NNE visible
03 Apr 11.2 23:21:56 10° NW 23:29:08 24° NW 23:29:08 24° NW visible
04 Apr 10.9 19:32:51 10° NW 19:54:28 31° NNE 20:04:35 23° NE visible
04 Apr 10.6 22:05:54 10° NW 22:21:52 45° NNW 22:21:52 45° NNW visible
05 Apr 11.3 18:17:39 10° NW 18:36:26 25° NNE 18:54:37 10° ENE visible
05 Apr 10.4 20:50:27 10° NW 21:14:38 48° NNE 21:14:38 48° NNE visible
05 Apr 11.2 23:24:34 10° WNW 23:31:55 25° WNW 23:31:55 25° WNW visible
06 Apr 10.7 19:35:30 10° NW 19:58:30 36° NNE 20:07:25 29° ENE visible
06 Apr 10.6 22:08:12 10° NW 22:24:43 49° NW 22:24:43 49° NW visible
07 Apr 11.2 18:20:55 10° NNW 18:41:00 28° NNE 19:00:02 10° ENE visible
07 Apr 10.3 20:52:41 10° NW 21:17:32 58° NNE 21:17:32 58° NNE visible
07 Apr 11.3 23:27:30 10° WNW 23:34:50 24° WNW 23:34:50 24° WNW visible
08 Apr 10.6 19:37:55 10° NW 20:02:12 43° NNE 20:10:24 35° ENE visible
08 Apr 10.5 22:10:41 10° NW 22:27:42 51° NW 22:27:42 51° NW visible
09 Apr 11.1 18:23:48 10° NNW 18:45:11 33° NNE 19:03:18 13° ENE visible
09 Apr 10.1 20:54:59 10° NW 21:20:36 69° NNE 21:20:36 69° NNE visible
09 Apr 11.3 23:30:49 10° WNW 23:37:54 23° WNW 23:37:54 23° WNW visible
10 Apr 10.4 19:40:17 10° NW 20:05:33 52° NNE 20:13:32 41° ENE visible
10 Apr 10.6 22:13:23 10° WNW 22:30:50 51° WNW 22:30:50 51° WNW visible
11 Apr 11.0 18:26:25 10° NW 18:48:57 39° NNE 19:06:31 17° E visible
11 Apr 10.1 20:57:23 10° NW 21:23:49 82° NNE 21:23:49 82° NNE visible
11 Apr 11.4 23:34:36 10° WNW 23:41:07 21° W 23:41:07 21° W visible
12 Apr 10.3 19:42:38 10° NW 20:08:37 62° NE 20:16:50 47° E visible
12 Apr 10.6 22:16:23 10° WNW 22:34:08 48° W 22:34:08 48° W visible
